| time (UTC) | temp F | wind direction | speed MPH | gust MPH | rain 1hr in | rain 24hr in | rain mn in | humidity % | barometer mb |
| 20260510101511 | 47 | 267 | 0.0 | 0.0 | 0.00 | 0.00 | 0.00 | 70 | 1012.5 |
| 20260510100015 | 47 | 267 | 0.0 | 0.0 | 0.00 | 0.00 | 0.00 | 70 | 1012.4 |
| 20260510094521 | 47 | 267 | 0.0 | 0.0 | 0.00 | 0.00 | 0.00 | 71 | 1012.2 |
| 20260510093006 | 48 | 267 | 0.0 | 0.0 | 0.00 | 0.00 | 0.00 | 71 | 1012.2 |
| 20260510091508 | 48 | 267 | 0.0 | 0.0 | 0.00 | 0.00 | 0.00 | 71 | 1012.1 |
| 20260510090014 | 48 | 267 | 0.0 | 0.0 | 0.00 | 0.00 | 0.00 | 71 | 1012.0 |
| 20260510084521 | 49 | 267 | 0.0 | 0.0 | 0.00 | 0.00 | 0.00 | 70 | 1012.1 |
| 20260510083016 | 49 | 267 | 0.0 | 0.0 | 0.00 | 0.00 | 0.00 | 71 | 1011.9 |
| 20260510081517 | 49 | 267 | 0.0 | 0.0 | 0.00 | 0.00 | 0.00 | 72 | 1011.8 |
| 20260510080007 | 50 | 267 | 0.0 | 0.0 | 0.00 | 0.00 | 0.00 | 72 | 1011.4 |
| 20260510074516 | 50 | 267 | 0.0 | 0.0 | 0.00 | 0.00 | 0.00 | 72 | 1011.3 |
| 20260510073022 | 50 | 267 | 0.0 | 0.0 | 0.00 | 0.00 | 0.00 | 72 | 1011.3 |
| 20260510071520 | 50 | 267 | 0.0 | 0.0 | 0.00 | 0.00 | 0.00 | 73 | 1011.2 |
| 20260510070010 | 51 | 267 | 0.0 | 0.0 | 0.00 | 0.00 | 0.00 | 72 | 1011.3 |
| 20260510064519 | 51 | 267 | 0.0 | 0.0 | 0.00 | 0.00 | 0.00 | 74 | 1011.2 |
| 20260510063022 | 51 | 267 | 0.0 | 0.0 | 0.00 | 0.00 | 0.00 | 76 | 1011.3 |
| 20260510061527 | 52 | 267 | 0.0 | 0.0 | 0.00 | 0.00 | 0.00 | 76 | 1011.2 |
| 20260510060024 | 53 | 267 | 0.0 | 0.0 | 0.00 | 0.00 | 0.00 | 78 | 1011.3 |
| 20260510054510 | 53 | 267 | 0.0 | 0.0 | 0.00 | 0.00 | 0.00 | 78 | 1011.1 |
| 20260510053023 | 53 | 267 | 0.0 | 0.0 | 0.00 | 0.00 | 0.00 | 78 | 1011.3 |
| 20260510051530 | 54 | 267 | 0.0 | 0.0 | 0.00 | 0.00 | 0.00 | 78 | 1011.3 |
| 20260510050017 | 54 | 267 | 0.0 | 0.0 | 0.00 | 0.00 | 0.00 | 77 | 1011.2 |
| 20260510044512 | 54 | 267 | 0.0 | 0.0 | 0.00 | 0.00 | 0.00 | 77 | 1011.3 |
| 20260510043020 | 54 | 267 | 0.0 | 0.0 | 0.00 | 0.00 | 0.00 | 79 | 1011.2 |
| 20260510041519 | 54 | 267 | 0.0 | 0.0 | 0.00 | 0.00 | 0.00 | 79 | 1011.2 |
| 20260510040025 | 55 | 267 | 0.0 | 0.0 | 0.00 | 0.00 | 0.00 | 80 | 1011.0 |
| 20260510034522 | 56 | 267 | 0.0 | 0.0 | 0.00 | 0.00 | 0.00 | 81 | 1010.9 |
| 20260510033018 | 56 | 267 | 0.0 | 0.0 | 0.00 | 0.00 | 0.00 | 82 | 1010.8 |
| 20260510031516 | 57 | 267 | 0.0 | 0.0 | 0.00 | 0.00 | 0.00 | 82 | 1010.7 |
| 20260510030028 | 57 | 267 | 0.0 | 0.0 | 0.00 | 0.00 | 0.00 | 83 | 1010.7 |
| 20260510024526 | 58 | 267 | 0.0 | 0.0 | 0.00 | 0.00 | 0.00 | 82 | 1010.7 |
| 20260510023008 | 59 | 267 | 0.0 | 0.0 | 0.00 | 0.00 | 0.00 | 81 | 1010.5 |
| 20260510021516 | 60 | 267 | 0.0 | 0.0 | 0.00 | 0.00 | 0.00 | 80 | 1010.3 |
| 20260510020020 | 61 | 267 | 0.0 | 0.0 | 0.00 | 0.00 | 0.00 | 78 | 1009.9 |
| 20260510014521 | 62 | 267 | 0.0 | 0.0 | 0.00 | 0.00 | 0.00 | 77 | 1009.5 |
| 20260510013025 | 63 | 267 | 0.0 | 0.0 | 0.00 | 0.00 | 0.00 | 74 | 1009.3 |
| 20260510011509 | 64 | 267 | 0.0 | 0.0 | 0.00 | 0.00 | 0.00 | 71 | 1009.1 |
| 20260510010013 | 65 | 267 | 0.0 | 0.0 | 0.00 | 0.00 | 0.00 | 70 | 1008.8 |
| 20260510004522 | 66 | 267 | 0.0 | 0.0 | 0.00 | 0.00 | 0.00 | 68 | 1008.6 |
| 20260510003028 | 67 | 267 | 0.0 | 0.0 | 0.00 | 0.00 | 0.00 | 66 | 1008.2 |
| 20260510001509 | 69 | 267 | 0.0 | 0.0 | 0.00 | 0.00 | 0.00 | 64 | 1008.2 |
| 20260510000019 | 70 | 267 | 0.0 | 0.0 | 0.00 | 0.00 | 0.00 | 62 | 1008.1 |
| 20260509234514 | 71 | 267 | 0.0 | 0.0 | 0.00 | 0.00 | 0.00 | 59 | 1007.9 |
| 20260509233009 | 72 | 267 | 0.0 | 2.0 | 0.00 | 0.00 | 0.00 | 57 | 1007.8 |
| 20260509231528 | 73 | 267 | 0.0 | 0.0 | 0.00 | 0.00 | 0.00 | 55 | 1007.6 |
| 20260509230010 | 74 | 267 | 0.0 | 4.0 | 0.00 | 0.00 | 0.00 | 52 | 1007.7 |
| 20260509224516 | 74 | 250 | 0.0 | 4.0 | 0.00 | 0.00 | 0.00 | 53 | 1007.6 |
| 20260509223022 | 75 | 246 | 1.0 | 4.0 | 0.00 | 0.00 | 0.00 | 51 | 1007.7 |
| 20260509221515 | 75 | 248 | 0.0 | 2.0 | 0.00 | 0.00 | 0.00 | 51 | 1007.6 |
| 20260509220011 | 74 | 250 | 0.0 | 3.0 | 0.00 | 0.00 | 0.00 | 51 | 1007.6 |
| 20260509214515 | 75 | 281 | 2.0 | 7.0 | 0.00 | 0.00 | 0.00 | 49 | 1007.5 |
| 20260509213018 | 74 | 147 | 0.0 | 2.0 | 0.00 | 0.00 | 0.00 | 53 | 1007.4 |
| 20260509211524 | 74 | 280 | 0.0 | 2.0 | 0.00 | 0.00 | 0.00 | 55 | 1007.4 |
| 20260509210027 | 74 | 239 | 0.0 | 3.0 | 0.00 | 0.00 | 0.00 | 51 | 1007.3 |
| 20260509204519 | 74 | 281 | 2.0 | 9.0 | 0.00 | 0.00 | 0.00 | 50 | 1007.4 |
| 20260509203017 | 75 | 234 | 1.0 | 7.0 | 0.00 | 0.00 | 0.00 | 48 | 1007.3 |
| 20260509201526 | 77 | 308 | 1.0 | 8.0 | 0.00 | 0.00 | 0.00 | 49 | 1007.4 |
| 20260509200030 | 77 | 263 | 1.0 | 11.0 | 0.00 | 0.00 | 0.00 | 47 | 1007.4 |
| 20260509194529 | 76 | 142 | 1.0 | 7.0 | 0.00 | 0.00 | 0.00 | 51 | 1007.4 |
| 20260509193014 | 75 | 258 | 1.0 | 7.0 | 0.00 | 0.00 | 0.00 | 50 | 1007.7 |
| 20260509191519 | 75 | 141 | 0.0 | 3.0 | 0.00 | 0.00 | 0.00 | 51 | 1008.1 |
| 20260509190020 | 73 | 280 | 0.0 | 4.0 | 0.00 | 0.00 | 0.00 | 58 | 1008.2 |
| 20260509184514 | 71 | 310 | 0.0 | 4.0 | 0.00 | 0.00 | 0.00 | 56 | 1008.5 |
| 20260509183012 | 72 | 257 | 1.0 | 6.0 | 0.00 | 0.00 | 0.00 | 56 | 1008.6 |
| 20260509181510 | 72 | 243 | 1.0 | 4.0 | 0.00 | 0.00 | 0.00 | 55 | 1008.8 |
| 20260509180023 | 74 | 202 | 1.0 | 8.0 | 0.00 | 0.00 | 0.00 | 54 | 1008.9 |
| 20260509174525 | 74 | 273 | 2.0 | 9.0 | 0.00 | 0.00 | 0.00 | 53 | 1009.0 |
| 20260509173024 | 75 | 253 | 1.0 | 10.0 | 0.00 | 0.00 | 0.00 | 54 | 1009.2 |
| 20260509171523 | 74 | 312 | 3.0 | 14.0 | 0.00 | 0.00 | 0.00 | 56 | 1009.3 |
| 20260509170016 | 72 | 63 | 1.0 | 11.0 | 0.00 | 0.00 | 0.00 | 59 | 1009.5 |
| 20260509164523 | 70 | 295 | 0.0 | 13.0 | 0.00 | 0.00 | 0.00 | 64 | 1009.7 |
| 20260509163027 | 70 | 295 | 1.0 | 7.0 | 0.00 | 0.00 | 0.00 | 60 | 1009.6 |
| 20260509161512 | 70 | 227 | 3.0 | 8.0 | 0.00 | 0.00 | 0.00 | 59 | 1009.7 |
| 20260509160021 | 69 | 257 | 3.0 | 10.0 | 0.00 | 0.00 | 0.00 | 61 | 1010.0 |
| 20260509154522 | 69 | 242 | 2.0 | 12.0 | 0.00 | 0.00 | 0.00 | 61 | 1010.2 |
| 20260509153033 | 69 | 317 | 0.0 | 4.0 | 0.00 | 0.00 | 0.00 | 62 | 1010.1 |
| 20260509151515 | 67 | 229 | 0.0 | 7.0 | 0.00 | 0.00 | 0.00 | 66 | 1010.1 |
| 20260509150012 | 65 | 252 | 3.0 | 12.0 | 0.00 | 0.00 | 0.00 | 66 | 1010.6 |
| 20260509144518 | 64 | 260 | 0.0 | 8.0 | 0.00 | 0.00 | 0.00 | 66 | 1010.9 |
| 20260509143024 | 63 | 199 | 0.0 | 3.0 | 0.00 | 0.00 | 0.00 | 67 | 1010.8 |
| 20260509141524 | 63 | 171 | 1.0 | 7.0 | 0.00 | 0.00 | 0.00 | 67 | 1010.4 |
| 20260509140019 | 61 | 298 | 3.0 | 10.0 | 0.00 | 0.00 | 0.00 | 70 | 1010.6 |
| 20260509134515 | 60 | 232 | 0.0 | 9.0 | 0.00 | 0.00 | 0.00 | 73 | 1011.1 |
| 20260509133016 | 57 | 228 | 0.0 | 2.0 | 0.00 | 0.00 | 0.00 | 78 | 1011.2 |
| 20260509131527 | 54 | 251 | 0.0 | 0.0 | 0.00 | 0.00 | 0.00 | 82 | 1011.3 |
| 20260509130051 | 52 | 268 | 0.0 | 0.0 | 0.00 | 0.00 | 0.00 | 83 | 1011.4 |
| 20260509124528 | 50 | 268 | 0.0 | 0.0 | 0.00 | 0.00 | 0.00 | 82 | 1011.6 |
| 20260509123026 | 49 | 0.0 | 0.0 | 0.00 | 0.00 | 0.00 | 81 | 1011.7 | |
| 20260509121524 | 48 | 0.0 | 0.0 | 0.00 | 0.00 | 0.00 | 76 | 1011.7 | |
| 20260509120036 | 47 | 0.0 | 0.0 | 0.00 | 0.00 | 0.00 | 75 | 1011.8 | |
| 20260509114531 | 47 | 0.0 | 0.0 | 0.00 | 0.00 | 0.00 | 76 | 1011.8 | |
| 20260509113015 | 46 | 0.0 | 0.0 | 0.00 | 0.00 | 0.00 | 75 | 1011.9 | |
| 20260509111521 | 45 | 0.0 | 0.0 | 0.00 | 0.00 | 0.00 | 76 | 1011.7 | |
| 20260509110027 | 45 | 0.0 | 0.0 | 0.00 | 0.00 | 0.00 | 76 | 1011.5 | |
| 20260509104507 | 44 | 268 | 0.0 | 0.0 | 0.00 | 0.00 | 0.00 | 76 | 1011.5 |
| 20260509103014 | 44 | 268 | 0.0 | 0.0 | 0.00 | 0.00 | 0.00 | 78 | 1011.3 |